[[{"header":{"parameterUnit":"m.s-1","parameterCategory":1,"la1":30.2991,"la2":30.254,"lo1":-89.0895,"lo2":-89.0444,"dy":0.0017,"dx":0.0017,"nx":28,"ny":28,"refTime":"2025-01-25T09:00:00:Z","depth":0,"parameterNumber":2,"parameterNumberName":"U-component_of_WINDS"},"data":[0,0,0,0,0,0,0,0,0,0,0,0,0,0,0,0,0,0,0,0,0,0,0,0,0,0,0,0,0,0,0,0,0,0,0,0,0,0,0,0,0,0,0,0,0,0,0,0,0,0,0,0,0,0,0,0,0,0,-1.3203,-1.3203,0,-1.3217,-1.3218,-1.3218,-1.3208,-1.3208,-1.3207,-1.3207,-1.3222,-1.3223,-1.3224,0,0,0,0,0,0,0,0,0,0,0,0,0,-1.3166,-1.3167,-1.3203,-1.3203,-1.3204,-1.3217,-1.3218,-1.3218,-1.3208,-1.3208,-1.3207,-1.3206,-1.3222,-1.3223,-1.3224,0,0,0,0,0,0,0,0,0,0,0,0,0,-1.3182,-1.3167,-1.3203,-1.32,-1.32,-1.3217,-1.3218,-1.3218,-1.3208,-1.3207,-1.3207,-1.3206,-1.3221,-1.3223,-1.3224,-1.3245,0,0,-1.3228,-1.3228,0,0,0,0,0,0,0,0,-1.3181,-1.3183,-1.3201,-1.3201,-1.32,-1.321,-1.321,-1.3227,-1.3208,-1.3205,-1.3207,-1.3206,-1.3219,-1.322,-1.3224,-1.3246,-1.3246,-1.3228,-1.3228,-1.3229,-1.3229,0,0,0,0,0,0,0,-1.318,-1.3182,-1.3209,-1.3201,-1.3201,-1.3198,-1.3199,-1.3213,-1.3216,-1.3205,-1.3205,-1.3206,-1.3219,-1.3223,-1.3225,-1.3246,-1.3228,-1.3229,-1.323,-1.323,-1.3282,-1.3283,0,0,0,0,0,0,-1.3179,-1.3182,-1.3208,-1.3209,-1.3189,-1.3199,-1.3201,-1.3208,-1.3215,-1.3216,-1.3207,-1.3206,-1.3221,-1.3223,-1.3225,-1.3248,-1.3229,-1.323,-1.3231,-1.3282,-1.3283,-1.3283,0,0,0,0,0,0,-1.3178,-1.3182,-1.3208,-1.3195,-1.3198,-1.32,-1.3208,-1.3208,-1.3213,-1.3217,-1.3217,-1.3211,-1.3221,-1.3223,-1.3239,-1.3249,-1.3231,-1.3232,-1.3281,-1.3282,-1.3283,-1.3296,0,0,0,0,0,0,-1.3177,-1.3181,-1.319,-1.3195,-1.3199,-1.3222,-1.3209,-1.3209,-1.3215,-1.3214,-1.3221,-1.3221,-1.3221,-1.3237,-1.324,-1.325,-1.3233,-1.328,-1.3281,-1.3283,-1.3294,-1.3297,-1.3299,0,0,0,0,0,-1.3176,-1.3194,-1.319,-1.3194,-1.321,-1.3223,-1.3225,-1.3223,-1.3216,-1.3224,-1.3226,-1.3221,-1.3247,-1.3239,-1.3242,-1.3253,-1.328,-1.3281,-1.3283,-1.3293,-1.3296,-1.3299,0,0,0,0,0,0,-1.319,-1.3194,-1.3191,-1.3211,-1.3216,-1.3221,-1.3231,-1.3227,-1.3235,-1.3234,-1.3232,-1.3234,-1.325,-1.3253,-1.3244,-1.3272,-1.3262,-1.3264,-1.3269,-1.3272,-1.3274,-1.3273,-1.3234,0,0,0,0,0,-1.3195,-1.3206,-1.3209,-1.3226,-1.3229,-1.323,-1.3235,-1.3234,-1.3239,-1.3242,-1.3245,-1.3251,-1.326,-1.3266,-1.3275,-1.3295,-1.3295,-1.3303,-1.3305,-1.3307,-1.3309,-1.3317,-1.332,-1.3288,-1.3288,-1.3288,0,0,-1.3207,-1.321,-1.3217,-1.3229,-1.3233,-1.3243,-1.3232,-1.3244,-1.3251,-1.3244,-1.3258,-1.3261,-1.3267,-1.3284,-1.3292,-1.3287,-1.3318,-1.3309,-1.3311,-1.3311,-1.3319,-1.3322,-1.3325,-1.3289,-1.3289,-1.3289,0,0,-1.3232,-1.3237,-1.325,-1.3254,-1.326,-1.326,-1.3263,-1.3268,-1.3268,-1.3283,-1.3277,-1.3285,-1.3302,-1.3306,-1.331,-1.3334,-1.3329,-1.3337,-1.3349,-1.3357,-1.336,-1.3362,-1.3369,-1.3371,-1.3339,-1.3339,-1.3339,0,-1.3246,-1.3261,-1.3258,-1.3269,-1.3274,-1.3267,-1.328,-1.3284,-1.3292,-1.3295,-1.329,-1.3308,-1.3312,-1.3329,-1.3334,-1.3339,-1.3341,-1.3336,-1.3359,-1.3362,-1.3364,-1.337,-1.3373,-1.334,-1.3339,-1.3339,-1.3339,0,-1.3276,-1.3286,-1.3296,-1.3303,-1.3309,-1.3322,-1.332,-1.3326,-1.3323,-1.3323,-1.3336,-1.334,-1.3349,-1.3353,-1.3351,-1.3369,-1.3365,-1.336,-1.335,-1.3367,-1.3373,-1.3376,-1.3341,-1.334,-1.334,-1.334,0,0,-1.3312,-1.3315,-1.3319,-1.3321,-1.3326,-1.3333,-1.3344,-1.3352,-1.3356,-1.3362,-1.337,-1.3383,-1.3377,-1.3382,-1.338,-1.3387,-1.3403,-1.338,-1.338,-1.3383,-1.342,-1.3424,-1.3427,-1.34,-1.34,-1.3401,-1.3419,0,-1.3337,-1.3355,-1.3352,-1.337,-1.3378,-1.337,-1.338,-1.3383,-1.3383,-1.3389,-1.3389,-1.3398,-1.339,-1.3392,-1.3399,-1.3399,-1.341,-1.3398,-1.3406,-1.3407,-1.3404,-1.343,-1.3435,-1.3452,-1.3422,-1.3422,-1.3423,0,-1.3368,-1.3373,-1.3392,-1.3392,-1.3396,-1.3404,-1.3409,-1.3416,-1.3419,-1.3418,-1.3422,-1.3418,-1.3428,-1.3418,-1.343,-1.3422,-1.3425,-1.3426,-1.3426,-1.3427,-1.3415,-1.343,-1.3458,-1.346,-1.3427,-1.3426,-1.3426,0,-1.339,-1.3402,-1.3414,-1.3416,-1.3418,-1.3423,-1.3424,-1.3427,-1.343,-1.3435,-1.3437,-1.3443,-1.3446,-1.345,-1.3447,-1.344,-1.346,-1.345,-1.3458,-1.3458,-1.3463,-1.3462,-1.3491,-1.3466,-1.3466,-1.3466,-1.3466,0,-1.3418,-1.3429,-1.3423,-1.3431,-1.3442,-1.3438,-1.3449,-1.345,-1.3451,-1.3458,-1.3452,-1.3458,-1.3454,-1.346,-1.3457,-1.3467,-1.3469,-1.3468,-1.3467,-1.3468,-1.3468,-1.347,-1.3468,-1.3467,-1.3467,-1.3467,-1.3466,0,-1.3445,-1.3442,-1.3454,-1.3453,-1.3453,-1.3462,-1.3462,-1.3468,-1.3466,-1.3474,-1.3476,-1.3474,-1.348,-1.3477,-1.3484,-1.3483,-1.3495,-1.3493,-1.3493,-1.3492,-1.3501,-1.3499,-1.353,-1.3533,-1.3508,-1.3508,-1.3508,0,-1.3462,-1.347,-1.347,-1.3473,-1.3474,-1.348,-1.3483,-1.3479,-1.3482,-1.3484,-1.349,-1.3495,-1.3499,-1.3509,-1.3508,-1.3512,-1.351,-1.352,-1.3511,-1.3511,-1.3508,-1.3508,-1.3508,-1.3522,-1.3522,-1.3523,-1.3523,0,-1.3492,-1.3489,-1.3494,-1.3497,-1.3501,-1.3504,-1.3506,-1.3509,-1.3504,-1.3508,-1.3514,-1.3517,-1.3522,-1.3527,-1.3531,-1.3531,-1.3526,-1.3526,-1.3528,-1.3529,-1.3528,-1.3527,-1.3497,-1.3525,-1.3525,-1.3525,-1.3525,-1.3525,-1.3514,-1.3519,-1.3519,-1.3524,-1.3525,-1.3526,-1.3531,-1.353,-1.3534,-1.3538,-1.3535,-1.3541,-1.3541,-1.3545,-1.3546,-1.355,-1.3546,-1.355,-1.355,-1.3551,-1.3551,-1.3528,-1.3551,-1.3551,-1.3551,-1.3551,-1.3551,0,-1.3542,-1.3541,-1.3545,-1.3547,-1.3551,-1.3544,-1.3546,-1.3549,-1.3554,-1.3555,-1.3558,-1.3563,-1.3567,-1.3566,-1.3569,-1.3573,-1.357,-1.3574,-1.3573,-1.3573,-1.3556,-1.3553,-1.3575,-1.3575,-1.3575,-1.3575,-1.3575,-1.3575,-1.3557,-1.3566,-1.3563,-1.3571,-1.357,-1.3576,-1.3577,-1.3577,-1.3578,-1.3584,-1.3586,-1.3585,-1.3584,-1.3587,-1.359,-1.3589,-1.359,-1.3595,-1.3593,-1.3577,-1.3574,-1.3572,-1.3569,-1.3595,-1.3595,-1.361,-1.361,-1.361]},{"header":{"parameterUnit":"m.s-1","parameterCategory":1,"la1":30.2991,"la2":30.254,"lo1":-89.0895,"lo2":-89.0444,"dy":0.0017,"dx":0.0017,"nx":28,"ny":28,"refTime":"2025-01-25T09:00:00:Z","depth":0,"parameterNumber":3,"parameterNumberName":"V-component_of_WINDS"},"data":[0,0,0,0,0,0,0,0,0,0,0,0,0,0,0,0,0,0,0,0,0,0,0,0,0,0,0,0,0,0,0,0,0,0,0,0,0,0,0,0,0,0,0,0,0,0,0,0,0,0,0,0,0,0,0,0,0,0,0.3069,0.3072,0,0.3346,0.3349,0.3352,0.3377,0.3374,0.3371,0.3368,0.3662,0.3672,0.3682,0,0,0,0,0,0,0,0,0,0,0,0,0,0.2573,0.2582,0.3069,0.3072,0.3076,0.3346,0.3349,0.3353,0.3378,0.3374,0.3371,0.3367,0.3658,0.3671,0.3683,0,0,0,0,0,0,0,0,0,0,0,0,0,0.2813,0.2585,0.3068,0.312,0.3128,0.3345,0.335,0.3354,0.3379,0.3374,0.337,0.3365,0.3654,0.367,0.3685,0.3872,0,0,0.3734,0.3741,0,0,0,0,0,0,0,0,0.28,0.2832,0.3109,0.3117,0.3126,0.3322,0.3282,0.3528,0.338,0.3284,0.3368,0.3363,0.3553,0.3577,0.3639,0.3886,0.3899,0.3735,0.3745,0.3752,0.3756,0,0,0,0,0,0,0,0.2783,0.282,0.3179,0.3113,0.3124,0.3134,0.3163,0.3329,0.344,0.3292,0.3294,0.3326,0.3557,0.3624,0.3646,0.3903,0.3735,0.3749,0.3759,0.3765,0.4324,0.4329,0,0,0,0,0,0,0.2755,0.2806,0.317,0.3187,0.2948,0.3146,0.3179,0.3264,0.3438,0.3461,0.333,0.3326,0.3599,0.3628,0.3656,0.3892,0.3751,0.3766,0.3775,0.4319,0.4325,0.4331,0,0,0,0,0,0,0.2744,0.2787,0.3159,0.2997,0.3045,0.316,0.3255,0.3272,0.3339,0.3467,0.3488,0.3377,0.3596,0.3634,0.3819,0.3902,0.3773,0.3788,0.4312,0.4321,0.4328,0.4361,0,0,0,0,0,0,0.273,0.2783,0.2852,0.2998,0.3054,0.3314,0.326,0.328,0.3365,0.3363,0.3517,0.3538,0.3596,0.3795,0.3835,0.3922,0.38,0.4306,0.4316,0.4326,0.4353,0.4369,0.4383,0,0,0,0,0,0.2712,0.2851,0.2856,0.29,0.3142,0.3318,0.335,0.3411,0.3371,0.3444,0.3528,0.3533,0.3885,0.3814,0.3859,0.3952,0.4301,0.4313,0.4325,0.4346,0.4366,0.4382,0,0,0,0,0,0,0.2715,0.2871,0.2878,0.3068,0.3179,0.3322,0.3416,0.3429,0.3556,0.355,0.3623,0.3657,0.3841,0.3914,0.3832,0.4145,0.409,0.4111,0.4091,0.411,0.4125,0.4105,0.3813,0,0,0,0,0,0.2737,0.2863,0.2994,0.315,0.3205,0.3301,0.3379,0.3417,0.3536,0.3584,0.3681,0.38,0.3938,0.4027,0.4161,0.4362,0.44,0.4449,0.4463,0.4475,0.4494,0.4612,0.4637,0.437,0.437,0.437,0,0,0.2785,0.2886,0.2962,0.3153,0.3243,0.3377,0.334,0.3482,0.3584,0.3607,0.3788,0.3863,0.4001,0.4196,0.4287,0.4263,0.4576,0.449,0.4499,0.4512,0.4627,0.4653,0.4675,0.4379,0.4377,0.4376,0,0,0.2942,0.3029,0.317,0.3262,0.3399,0.3462,0.3496,0.3637,0.3688,0.387,0.3892,0.4015,0.4249,0.4348,0.4429,0.4627,0.464,0.4668,0.4748,0.4862,0.4883,0.4902,0.4978,0.5004,0.4686,0.4686,0.4686,0,0.2986,0.3185,0.3242,0.3385,0.347,0.3495,0.3642,0.3729,0.3904,0.3965,0.3934,0.4232,0.4326,0.4548,0.4596,0.4659,0.4705,0.4653,0.4874,0.4894,0.4913,0.4987,0.5015,0.4689,0.4689,0.4689,0.4688,0,0.3235,0.3372,0.3471,0.3637,0.3734,0.3878,0.3961,0.4053,0.4082,0.415,0.4338,0.4452,0.4612,0.4666,0.4696,0.4894,0.4876,0.4859,0.4806,0.4941,0.5012,0.504,0.4694,0.4693,0.4692,0.4691,0,0,0.3403,0.3599,0.3635,0.3713,0.3867,0.3977,0.4124,0.4278,0.4358,0.4478,0.4607,0.4806,0.4793,0.4885,0.4927,0.5026,0.5182,0.4998,0.5003,0.5033,0.5414,0.5429,0.546,0.5189,0.5195,0.5199,0.5404,0,0.3581,0.384,0.3898,0.4123,0.4255,0.4281,0.441,0.4521,0.4589,0.4714,0.4789,0.4932,0.49,0.4957,0.5056,0.5142,0.5261,0.5127,0.5316,0.5322,0.5286,0.5496,0.5512,0.57,0.5432,0.5436,0.544,0,0.3824,0.3949,0.4187,0.4327,0.4385,0.4499,0.4647,0.4764,0.4892,0.4935,0.5039,0.5071,0.523,0.5166,0.539,0.5298,0.5379,0.5433,0.5442,0.5466,0.5392,0.5532,0.5761,0.5791,0.5483,0.5479,0.5476,0,0.393,0.4157,0.433,0.4395,0.4562,0.4643,0.4717,0.484,0.493,0.5061,0.5121,0.5268,0.5351,0.5466,0.554,0.5485,0.576,0.57,0.5805,0.5804,0.5866,0.5862,0.6117,0.5909,0.5908,0.5908,0.5907,0,0.4126,0.4272,0.438,0.4487,0.4654,0.4719,0.4884,0.4958,0.5068,0.5194,0.5225,0.5343,0.543,0.5562,0.562,0.58,0.5836,0.5879,0.5894,0.5879,0.5875,0.5937,0.5928,0.5915,0.5914,0.5912,0.5911,0,0.4274,0.4351,0.4543,0.4684,0.4724,0.4841,0.4965,0.5073,0.514,0.5299,0.5341,0.5449,0.5606,0.5689,0.5885,0.5925,0.6129,0.6134,0.6085,0.6093,0.6195,0.6186,0.6503,0.6551,0.6306,0.6308,0.631,0,0.4396,0.451,0.4664,0.4749,0.4824,0.496,0.5052,0.5122,0.5218,0.5374,0.5465,0.5622,0.5753,0.6003,0.6103,0.6254,0.6267,0.6367,0.629,0.6274,0.6276,0.627,0.6285,0.6382,0.6385,0.6386,0.6388,0,0.4608,0.4641,0.4771,0.4916,0.5024,0.5142,0.5259,0.5328,0.5418,0.5525,0.5684,0.5785,0.5986,0.6145,0.6304,0.6385,0.6405,0.6411,0.6444,0.6433,0.6403,0.6427,0.6128,0.6404,0.6403,0.6401,0.6401,0.64,0.4751,0.4855,0.498,0.5126,0.522,0.5329,0.5439,0.552,0.5653,0.5821,0.5854,0.6025,0.6155,0.6371,0.6457,0.6595,0.6575,0.6622,0.6635,0.6647,0.6654,0.6376,0.6623,0.6623,0.6623,0.6622,0.6622,0,0.497,0.5052,0.5184,0.5346,0.5462,0.5464,0.5595,0.5693,0.5842,0.5959,0.6087,0.6273,0.6428,0.6539,0.6698,0.6787,0.6801,0.6827,0.6825,0.6844,0.666,0.6618,0.6814,0.6814,0.6814,0.6814,0.6814,0.6814,0.5097,0.5274,0.5323,0.5549,0.5632,0.5797,0.5872,0.5975,0.607,0.6275,0.6403,0.6473,0.6591,0.6759,0.6903,0.6932,0.6992,0.7019,0.705,0.6877,0.6856,0.6837,0.6798,0.703,0.703,0.7224,0.7226,0.7227]}]]